Tracking 29042 objects as of 20-Jun-2024
HD Live streaming from Space Station
objects crossing your sky now

GNOMES-1

Track GNOMES-1 now!
10-day predictions


NORAD ID: 46266
Int'l Code: 2020-059B
Perigee: 591.4 km
Apogee: 596.8 km
Inclination: 97.9 °
Period: 96.4 minutes
Semi major axis: 6965 km
RCS: Unknown
Launch date: August 30, 2020
Source: United States (US)
Launch site: AIR FORCE EASTERN TEST RANGE (AFETR)
Your satellite tracking list
Your tracking list is empty




NASA's NSSDC Master Catalog

Two Line Element Set (TLE):
1 46266U 20059B   24172.53844402  .00002481  00000-0  24108-3 0  9999
2 46266  97.8505  11.0476 0003831 238.2084 121.8763 14.93518487206849
Source of the keplerian elements: AFSPC